Location: Boiro
(42.6475°N, 8.8834°W)
Time: 18:01:50
(UTC+01:00)

Explorer 11/Cluster Stage 4 - Pass Details

Date: 03 December 2021
Orbit: 467 x 1255 km, 28.8° (Epoch: 23 January)

Event Time Altitude Azimuth Distance (km) Brightness Sun altitude
Exits shadow 04:40:22 18° 133° (SE) 2,523 9.3 -44.8°
Drops below altitude 10° 04:43:01 10° 117° (ESE) 3,147 10.1 -44.3°
Sets 04:46:37 0° 105° (ESE) 4,168 11.0 -43.6°
